Regional Weather Roundup
Issued by NWS Mt. Holly, NJ

Home | Current Version | Previous Version | Text Only | Print | Product List | Glossary On
Versions: 1 2 3 4 5 6 7 8 9 10 11 12 13 14 15 16 17 18 19 20 21 22 23 24 25 26 27
000
ASUS41 KPHI 192212
RWRPHI

REGIONAL WEATHER ROUNDUP
NATIONAL WEATHER SERVICE MOUNT HOLLY NJ
600 PM EDT THU OCT 19 2017

NOTE:  "FAIR" INDICATES FEW OR NO CLOUDS BELOW 12,000 FEET WITH NO
SIGNIFICANT WEATHER AND/OR OBSTRUCTIONS TO VISIBILITY.

 * = STATION DOES NOT REPORT PRECIPITATION (E.G. RAIN, SNOW, ETC.)
        OR FOG.

NJZ015>026-192300-
SOUTHERN NEW JERSEY

CITY           SKY/WX    TMP DP  RH WIND       PRES   REMARKS
POMONA         CLEAR     66  51  58 SW6       30.13F
WILDWOOD*      CLEAR     66  57  72 S6        30.15F
MILLVILLE      CLEAR     66  55  67 CALM      30.14S
WRIGHTSTOWN    CLEAR     64  48  57 S7        30.08F
MOUNT HOLLY    CLEAR     66  47  50 CALM      30.11F
TRENTON        CLEAR     67  44  43 SW9       30.09F

$$
NJZ001>014-192300-
NORTHERN NEW JERSEY

CITY           SKY/WX    TMP DP  RH WIND       PRES   REMARKS
SUSSEX         CLEAR     67  44  43 SW6       30.06F
ANDOVER*         N/A     66  45  46 VRB3      30.08S
MORRISTOWN     PTCLDY    68  45  42 SW6       30.08F
NEWARK         PTCLDY    68  42  38 SW12      30.08F
TETERBORO      CLEAR     73  43  33 S8G21     30.06F
CALDWELL       CLEAR     68  45  43 SW5       30.08S
SOMERVILLE     CLEAR     67  46  47 S5        30.07F
ALLAIRE*       CLEAR     66  45  46 SW7       30.12S
TOMS RIVER*      N/A     64  50  60 SW6       30.12F

$$
PAZ043-044-047-054-055-060>062-066>071-192300-
EASTERN PENNSYLVANIA

CITY           SKY/WX    TMP DP  RH WIND       PRES   REMARKS
PHILADELPHIA   PTCLDY    69  43  38 SW10      30.12F
NORTH PHILA    CLEAR     68  46  45 SW8       30.12F
BLUE BELL*     CLEAR     63  43  48 SW6       30.13S
DOYLESTOWN     CLEAR     66  45  46 S8        30.09F
QUAKERTOWN*    CLEAR     66  48  52 SW5       30.11S
PERKASIE*      FAIR      64  46  52 CALM      30.12S
POTTSTOWN      CLEAR     66  47  50 S5        30.12F
LANCASTER      CLEAR     69  46  43 SW8       30.11S
COATESVILLE    CLEAR     63  50  63 VRB5      30.14S
READING        CLEAR     69  47  45 W7        30.10S
ALLENTOWN      CLEAR     66  46  48 SW7       30.10S
MOUNT POCONO   CLEAR     62  44  51 W6        30.10S
HAZLETON       CLEAR     64  41  42 CALM      30.14S
LEHIGHTON      FAIR      66  43  42 SW5       30.10S
WILKES BARRE   CLEAR     67  43  41 SW8       30.08S

$$
DEZALL-MDZ008-012-015-019-020-192300-
DELAWARE AND EASTERN MARYLAND

CITY           SKY/WX    TMP DP  RH WIND       PRES   REMARKS
WILMINGTON     CLEAR     66  48  52 SW7       30.13F
DOVER          CLEAR     72  48  42 SW8       30.13S
GEORGETOWN     CLEAR     67  47  48 SW6       30.16S
EASTON         CLEAR     68  48  49 SW3       30.19F
PATUXENT       PTCLDY    67  55  65 SE6       30.16S
OCEAN CITY     CLEAR     65  52  62 SW8       30.17S HAZE
WALLOPS ISLAND CLEAR     66  54  65 W5        30.18S
CAMBRIDGE      CLEAR     66  52  59 S5        30.16S
SALISBURY      CLEAR     64  51  62 SW7       30.16F

$$
PAZ001-021-NYZ056-072-MDZ011-DCZ001-192300-
OTHER NEARBY LOCATIONS

CITY           SKY/WX    TMP DP  RH WIND       PRES   REMARKS
HARRISBURG     PTCLDY    64  56  75 SW3       30.10F HAZE
WILLIAMSPORT   CLEAR     67  49  52 S3        30.05S
BINGHAMTON     CLEAR     64  41  42 SW9       30.04S
NEW YORK CITY  CLEAR     68  42  38 VRB6      30.10F
BALTIMORE      PTCLDY    68  47  46 SW5       30.14S
WASHINGTON DC  PTCLDY    69  46  43 SW5       30.15F

$$




USA.gov is the U.S. government's official web portal to all federal, state and local government web resources and services.